Weather Roundup
Issued by NWS Chicago, IL

Home | Current Version | Previous Version | Graphics & Text | Print | Product List | Glossary On
Versions: 1 2 3 4 5 6 7 8 9 10 11 12 13 14 15 16 17 18 19 20 21 22 23 24 25 26 27 28 29 30 31 32 33 34 35 36 37 38 39 40 41 42 43 44 45 46 47 48 49 50
430
NZUS59 KLOT 190008
HRRLOT

CHICAGO AREA WEATHER ROUNDUP
NATIONAL WEATHER SERVICE CHICAGO/ROMEOVILLE IL
600 PM CST SUN FEB 18 2018

NOTE: "FAIR" INDICATES FEW OR NO CLOUDS BELOW 12,000 FEET WITH NO
SIGNIFICANT WEATHER AND/OR OBSTRUCTIONS TO VISIBILITY.

* THESE STATIONS ARE NOT UNDER NWS QUALITY CONTROL. THEY ALSO MAY NOT
  REPORT WEATHER SUCH AS PRECIPITATION OR FOG.

ILZ005-006-012>014-019>023-190100-
NORTHEAST ILLINOIS

CITY           SKY/WX    TMP DP  RH WIND       PRES   REMARKS
OHARE          MOCLDY    36  29  75 SE18      29.99F
6HR MIN TEMP:  30; 6HR MAX TEMP:  38;

MIDWAY         MOCLDY    38  30  73 SE14      30.00F
6HR MIN TEMP:  31; 6HR MAX TEMP:  39;

AURORA           N/A     35  30  82 SE16      29.96F WCI  25
6HR MIN TEMP:  28; 6HR MAX TEMP:  37;

LANSING*         N/A     36  32  85 SE12      30.03F
JOLIET*          N/A     37  33  82 SE9       30.00F
WAUKEGAN         N/A     34  29  82 S20       29.96F WCI  23
6HR MIN TEMP:  32; 6HR MAX TEMP:  37;

DUPAGE AIRPORT   N/A     36  31  82 SE16      29.96F
6HR MIN TEMP:  28; 6HR MAX TEMP:  36;

WHEELING         N/A     37  29  72 S15G24    30.00F
6HR MIN TEMP:  32; 6HR MAX TEMP:  39;

KANKAKEE*        N/A     36  32  84 SE13      30.03F
MORRIS*          N/A     37  32  80 SE14      29.97F
LEWIS AIRPORT*   N/A     35  31  85 SE17      29.99F WCI  25
NORTHERLY ISL    N/A     35  29  79 SE13        N/A  WCI  26
$$

WIZ051-052-058>065-066-070>072-190100-
SOUTHEAST WISCONSIN

CITY           SKY/WX    TMP DP  RH WIND       PRES   REMARKS
MILWAUKEE      MOCLDY    34  28  79 S21G31    29.94F WCI  22
6HR MIN TEMP:  33; 6HR MAX TEMP:  39;

KENOSHA*         N/A     34  27  75 S21G30    29.94F WCI  22
RACINE*          N/A     33  29  85 S18G29    29.97F WCI  22
BURLINGTON       N/A     36  25  65 S13       29.92F
WAUKESHA       CLEAR     30  25  80 SE13      29.92F WCI  20
WEST BEND        N/A     32  28  86 SE9G17    29.90F WCI  24
$$

INZ001>003-010>013-019-020-190100-
NORTHWEST INDIANA

CITY           SKY/WX    TMP DP  RH WIND       PRES   REMARKS
GARY*          MOCLDY    37  32  81 SE12G23   30.04F
MICHIGAN CITY* NOT AVBL
RENSSELAER*    NOT AVBL
VALPARAISO       N/A     37  30  75 SE12G20   30.06F
$$

LMZ740>746-190100-
SOUTHERN LAKE MICHIGAN

STATION/POSITION TIME  SKY/WX   TEMP WIND        PRES    VSBY
                                AIR  DIR/SP/G
                 (UTC)          (F)  (DEG/KT/KT) (MB)    (MI)
HARRISON CRIB    2340            35  140/ 16/ 19   N/A
BURNHAM HARBOR   0000            35  140/ 10/ 16   N/A
CALUMET HARBOR   2342            37  140/ 13/ 19 1016.0F
BURNS HARBOR     2340            36  160/  9/ 14 1018.3F
MICHIGAN CITY    2340            36  130/ 16/ 20   N/A
$$

ABBREVIATIONS USED IN REMARKS
   TC - TEMPERATURE IN CELSIUS
  WCI - WIND CHILL INDEX
   HX - HEAT INDEX
  VSB - VISIBILITY
$$




USA.gov is the U.S. government's official web portal to all federal, state and local government web resources and services.